Skip Page Navigation
NASA JPL Caltech
NASA Logo - Jet Propulsion Laboratory + View the NASA Portal
+ Center for Near-Earth Object Studies
JPL Home Earth Solar System Stars & Galaxies Technology
JPL Solar System Dynamics
BODIES ORBITS EPHEMERIDES TOOLS PHYSICAL DATA DISCOVERY FAQ SITE MAP
IMPORTANT: The SSD Announcement email list is now available. Major changes are coming in the near future, including possible hostname and/or URL changes. To be notified of such changes, subscribe to this email list.

Please visit this page for more details.


JPL Small-Body Database Browser
Search: [ help ]  
4500 Pascal (1989 CL)
Classification: Main-belt Asteroid          SPK-ID: 2004500
Ephemeris | Orbit Diagram | Orbital Elements | Mission Design | Physical Parameters | Discovery Circumstances | Close-Approach Data ]

[ show orbit diagram ]
Orbital Elements at Epoch 2459000.5 (2020-May-31.0) TDB
Reference: JPL 28 (heliocentric ecliptic J2000)
 Element Value Uncertainty (1-sigma)   Units 
e .1638252358487074 3.2321e-08  
a 3.171500062990498 2.0165e-08 au
q 2.651928317176889 1.0406e-07 au
i 2.959281310274021 4.3087e-06 deg
node 136.3408910614799 8.3045e-05 deg
peri 309.7308851281579 8.442e-05 deg
M 235.2672494769441 1.4876e-05 deg
tp 2459715.281842842347
(2022-May-15.78184284)
8.5952e-05 TDB
period 2062.982355028569
5.65
1.9676e-05
5.387e-08
d
yr
n .1745046433007492 1.6643e-09 deg/d
Q 3.691071808804106 2.3469e-08 au
  Orbit Determination Parameters
   # obs. used (total)      1872  
   data-arc span      32106 days (87.90 yr)  
   first obs. used      1931-10-06  
   last obs. used      2019-08-31  
   planetary ephem.      DE431  
   SB-pert. ephem.      SB431-N16  
   condition code      0  
   norm. resid. RMS      .50019  
   source      ORB  
   producer      Otto Matic  
   solution date      2020-Feb-22 17:14:45  

Additional Information
 Earth MOID = 1.66946 au 
 Jupiter MOID = 1.5362 au 
 T_jup = 3.179 
[ show covariance matrix ]

Ephemeris | Orbit Diagram | Orbital Elements | Mission Design | Physical Parameters | Discovery Circumstances | Close-Approach Data ]

Physical Parameter Table
Parameter Symbol Value Units Sigma Reference Notes
absolute magnitude H 12.6   n/a MPO347559  
diameter diameter 15.893 km 0.399 urn:nasa:pds:neowise_diameters_albedos::2.0[mainbelt] (http://adsabs.harvard.edu/abs/2012ApJ...759L...8M)  
geometric albedo albedo 0.070   0.007 urn:nasa:pds:neowise_diameters_albedos::2.0[mainbelt] (http://adsabs.harvard.edu/abs/2012ApJ...759L...8M)  

4500 Pascal (1989 CL)          Discovered 1989-Feb-03 by Ueda and Kaneda at Kushiro
Reference: DISCOVERY.DBLast Updated: 2003-08-29

[ show close-approach data ]
Alternate Designations
 1989 CL = 1931 TE1 = 1954 XG = 1965 WT = 1981 QK1 = 1981 QY1 = 1987 TF 
Ephemeris | Orbit Diagram | Orbital Elements | Mission Design | Physical Parameters | Discovery Circumstances | Close-Approach Data ]
ABOUT SSD CREDITS/AWARDS PRIVACY/COPYRIGHT GLOSSARY LINKS
FirstGov 2020-Feb-28 12:59 UT
(server date/time)  
NASA Home Page
Site Manager:   Ryan S. Park
Webmaster  Alan B. Chamberlin